When you browse on this site, cookies collect data to enhance your experience and personalize the content and advertising you see.
Visit our Privacy Policy to learn more. By continuing to use the site, you agree to this use of cookies and data.
  • In Portugal
  • List of Countries
  • For 7 days
  • Water Temperature
  • Satellite Maps
  • Weather Map
  • Weather Widgets
  • user-avatar
    Login

    Hourly Weather Bor

    Today, 16 November, Friday

    Time Temperature Precipitation Wind Pressure Humidity
    00:00 +1°C° 0 mm 1 mps 761 mmHg 94%
    01:00 +1°C° 0 mm 1 mps 761 mmHg 94%
    02:00 +1°C° 0 mm 1 mps 762 mmHg 94%
    03:00 +1°C° 0 mm 1 mps 762 mmHg 94%
    04:00 +1°C° 0 mm 1 mps 762 mmHg 94%
    05:00 +1°C° 0 mm 1 mps 762 mmHg 94%
    06:00 0°C° 0 mm 1 mps 763 mmHg 93%
    07:00 -1°C° 0 mm 1 mps 763 mmHg 93%
    08:00 -1°C° 0 mm 1 mps 763 mmHg 92%
    09:00 0°C° 0 mm 1 mps 764 mmHg 88%
    10:00 0°C° 0 mm 1 mps 764 mmHg 85%
    11:00 +1°C° 0 mm 1 mps 764 mmHg 82%
    12:00 +1°C° 0 mm 1 mps 764 mmHg 81%
    13:00 +2°C° 0 mm 1 mps 764 mmHg 81%
    14:00 +2°C° 0 mm 1 mps 764 mmHg 80%
    15:00 +1°C° 0 mm 1 mps 764 mmHg 81%
    16:00 -1°C° 0 mm 1 mps 764 mmHg 81%
    17:00 -2°C° 0 mm 1 mps 764 mmHg 81%
    18:00 -2°C° 0 mm 1 mps 765 mmHg 80%
    19:00 -2°C° 0 mm 1 mps 765 mmHg 78%
    20:00 -2°C° 0 mm 1 mps 765 mmHg 77%
    21:00 -3°C° 0 mm 1 mps 765 mmHg 75%
    22:00 -3°C° 0 mm 1 mps 765 mmHg 74%
    23:00 -3°C° 0 mm 1 mps 765 mmHg 72%

    Tomorrow, 17 November, Saturday

    Time Temperature Precipitation Wind Pressure Humidity
    00:00 -3°C° 0 mm 1 mps 765 mmHg 70%
    01:00 -3°C° 0 mm 1 mps 765 mmHg 69%
    02:00 -3°C° 0 mm 1 mps 764 mmHg 67%
    03:00 -3°C° 0 mm 1 mps 764 mmHg 66%
    04:00 -3°C° 0 mm 1 mps 764 mmHg 65%
    05:00 -3°C° 0 mm 1 mps 764 mmHg 64%
    06:00 -3°C° 0 mm 1 mps 764 mmHg 63%
    07:00 -3°C° 0 mm 1 mps 763 mmHg 63%
    08:00 -3°C° 0 mm 1 mps 763 mmHg 63%
    09:00 -1°C° 0 mm 1 mps 763 mmHg 63%
    10:00 0°C° 0 mm 1 mps 763 mmHg 63%
    11:00 +1°C° 0 mm 1 mps 763 mmHg 62%
    12:00 +1°C° 0 mm 2 mps 762 mmHg 64%
    13:00 +1°C° 0 mm 2 mps 761 mmHg 65%
    14:00 +1°C° 0 mm 2 mps 761 mmHg 67%
    15:00 +1°C° 0 mm 2 mps 760 mmHg 69%
    16:00 0°C° 0 mm 3 mps 760 mmHg 71%
    17:00 -1°C° 0 mm 3 mps 759 mmHg 73%
    18:00 -1°C° 0 mm 3 mps 758 mmHg 76%
    19:00 -2°C° 0 mm 3 mps 758 mmHg 79%
    20:00 -2°C° 0 mm 3 mps 757 mmHg 83%
    21:00 -2°C° 0 mm 3 mps 756 mmHg 85%
    22:00 -1°C° 0 mm 3 mps 756 mmHg 88%
    23:00 -2°C° 0 mm 4 mps 755 mmHg 91%

    Day after tomorrow, 18 November, Sunday

    Time Temperature Precipitation Wind Pressure Humidity
    00:00 -1°C° 0 mm 4 mps 754 mmHg 92%
    01:00 -1°C° 0 mm 4 mps 754 mmHg 93%
    02:00 -1°C° 0 mm 4 mps 753 mmHg 94%
    03:00 0°C° 0.1 mm 4 mps 752 mmHg 94%
    04:00 0°C° 0.1 mm 4 mps 751 mmHg 95%
    05:00 0°C° 0.1 mm 4 mps 750 mmHg 95%
    06:00 0°C° 0.1 mm 4 mps 750 mmHg 95%
    07:00 0°C° 0.1 mm 4 mps 749 mmHg 95%
    08:00 0°C° 0.1 mm 4 mps 749 mmHg 96%
    09:00 0°C° 0.2 mm 4 mps 748 mmHg 95%
    10:00 0°C° 0.2 mm 4 mps 748 mmHg 95%
    11:00 +1°C° 0.2 mm 4 mps 748 mmHg 94%
    12:00 +2°C° 0.1 mm 3 mps 748 mmHg 95%
    13:00 +2°C° 0.1 mm 3 mps 748 mmHg 95%
    14:00 +2°C° 0.1 mm 3 mps 747 mmHg 95%
    15:00 +1°C° 0.2 mm 4 mps 747 mmHg 94%
    16:00 +1°C° 0.2 mm 4 mps 747 mmHg 94%
    17:00 +1°C° 0.2 mm 4 mps 747 mmHg 94%
    18:00 0°C° 0.3 mm 4 mps 747 mmHg 92%
    19:00 0°C° 0.3 mm 5 mps 747 mmHg 90%
    20:00 0°C° 0.3 mm 5 mps 747 mmHg 89%
    21:00 0°C° 0.4 mm 5 mps 747 mmHg 89%
    22:00 -1°C° 0.4 mm 4 mps 747 mmHg 90%
    23:00 -1°C° 0.4 mm 4 mps 747 mmHg 90%

    19 November, Monday

    Time Temperature Precipitation Wind Pressure Humidity
    00:00 -1°C° 0.1 mm 4 mps 748 mmHg 91%
    01:00 -1°C° 0.1 mm 4 mps 748 mmHg 92%
    02:00 -1°C° 0.1 mm 4 mps 748 mmHg 92%
    03:00 -1°C° 0.1 mm 4 mps 748 mmHg 93%
    04:00 -1°C° 0.1 mm 4 mps 748 mmHg 93%
    05:00 -1°C° 0.1 mm 4 mps 748 mmHg 93%
    06:00 -1°C° 0.1 mm 4 mps 748 mmHg 93%
    07:00 -1°C° 0.1 mm 4 mps 749 mmHg 93%
    08:00 -1°C° 0.1 mm 4 mps 749 mmHg 92%
    09:00 0°C° 0.2 mm 4 mps 749 mmHg 92%
    10:00 0°C° 0.2 mm 4 mps 749 mmHg 91%
    11:00 0°C° 0.2 mm 5 mps 750 mmHg 90%
    12:00 0°C° 0.3 mm 4 mps 750 mmHg 90%
    13:00 0°C° 0.3 mm 4 mps 750 mmHg 90%
    14:00 0°C° 0.3 mm 4 mps 750 mmHg 91%
    15:00 0°C° 0.2 mm 4 mps 750 mmHg 91%
    16:00 -1°C° 0.2 mm 4 mps 750 mmHg 92%
    17:00 -1°C° 0.2 mm 4 mps 750 mmHg 92%
    18:00 -1°C° 0.1 mm 4 mps 751 mmHg 93%
    19:00 -1°C° 0.1 mm 4 mps 751 mmHg 93%
    20:00 0°C° 0.1 mm 3 mps 751 mmHg 93%
    21:00 -1°C° 0.1 mm 3 mps 751 mmHg 93%
    22:00 -1°C° 0.1 mm 3 mps 752 mmHg 93%
    23:00 -1°C° 0.1 mm 3 mps 752 mmHg 93%

    20 November, Tuesday

    Time Temperature Precipitation Wind Pressure Humidity
    00:00 -1°C° 0 mm 3 mps 752 mmHg 92%
    01:00 -1°C° 0 mm 3 mps 752 mmHg 92%
    02:00 -2°C° 0 mm 3 mps 752 mmHg 91%
    03:00 -4°C° 0 mm 3 mps 752 mmHg 91%
    04:00 -4°C° 0 mm 3 mps 752 mmHg 91%
    05:00 -5°C° 0 mm 3 mps 752 mmHg 91%
    06:00 -5°C° 0 mm 3 mps 752 mmHg 91%
    07:00 -6°C° 0 mm 3 mps 753 mmHg 91%
    08:00 -6°C° 0 mm 3 mps 753 mmHg 90%
    09:00 -5°C° 0 mm 3 mps 753 mmHg 89%
    10:00 -5°C° 0 mm 3 mps 753 mmHg 87%
    11:00 -4°C° 0 mm 3 mps 753 mmHg 86%
    12:00 -2°C° 0 mm 3 mps 752 mmHg 87%
    13:00 -2°C° 0 mm 3 mps 752 mmHg 87%
    14:00 -2°C° 0 mm 3 mps 752 mmHg 88%
    15:00 -2°C° 0 mm 3 mps 752 mmHg 89%
    16:00 -2°C° 0 mm 3 mps 752 mmHg 90%
    17:00 -2°C° 0 mm 3 mps 752 mmHg 91%
    18:00 -2°C° 0 mm 3 mps 751 mmHg 91%
    19:00 -2°C° 0 mm 3 mps 751 mmHg 91%
    20:00 -3°C° 0 mm 2 mps 751 mmHg 91%
    21:00 -3°C° 0 mm 2 mps 751 mmHg 91%
    22:00 -3°C° 0 mm 2 mps 751 mmHg 91%
    23:00 -3°C° 0 mm 2 mps 751 mmHg 91%

    21 November, Wednesday

    Time Temperature Precipitation Wind Pressure Humidity
    00:00 -3°C° 0 mm 2 mps 751 mmHg 91%
    01:00 -4°C° 0 mm 2 mps 751 mmHg 91%
    02:00 -4°C° 0 mm 2 mps 750 mmHg 92%
    03:00 -4°C° 0 mm 2 mps 750 mmHg 92%
    04:00 -4°C° 0 mm 2 mps 750 mmHg 93%
    05:00 -5°C° 0 mm 2 mps 750 mmHg 93%
    06:00 -4°C° 0 mm 2 mps 750 mmHg 93%
    07:00 -5°C° 0 mm 3 mps 750 mmHg 93%
    08:00 -5°C° 0 mm 3 mps 750 mmHg 93%
    09:00 -4°C° 0 mm 3 mps 750 mmHg 91%
    10:00 -2°C° 0 mm 3 mps 750 mmHg 90%
    11:00 -2°C° 0 mm 4 mps 750 mmHg 88%
    12:00 -2°C° 0 mm 4 mps 749 mmHg 88%
    13:00 -2°C° 0 mm 4 mps 749 mmHg 88%
    14:00 -2°C° 0 mm 4 mps 749 mmHg 87%
    15:00 -3°C° 0 mm 4 mps 748 mmHg 88%
    16:00 -3°C° 0 mm 4 mps 748 mmHg 89%
    17:00 -4°C° 0 mm 5 mps 748 mmHg 90%
    18:00 -5°C° 0 mm 5 mps 748 mmHg 90%
    19:00 -4°C° 0 mm 4 mps 748 mmHg 89%
    20:00 -4°C° 0 mm 4 mps 748 mmHg 88%
    21:00 -4°C° 0 mm 4 mps 747 mmHg 88%
    22:00 -4°C° 0 mm 4 mps 747 mmHg 88%
    23:00 -6°C° 0 mm 5 mps 747 mmHg 88%
    Show more